SHT16R EGPH-EGLL

Flight info

Callsign SHT16R
Flight time 1h 9m
Altitude 33000
Route GOSAM P600 FENIK L612 NAVSO DCT AKOMU DCT VAMEB DCT NUGRA
Aircraft A320/M-SDE3FGHIRWY/LB1

Departure

Time 2026-05-03 21:28
Airport Edinburgh Airport (EGPH)

Arrival

Time 2026-05-03 22:38
Airport London Heathrow Airport (EGLL)
Time Latitude Longitude Altitude Speed Heading
2026-05-03 21:05 55.94906 -3.36497 107 ft 0 kts 148°
2026-05-03 21:20 55.94925 -3.36517 107 ft 4 kts 155°
2026-05-03 21:20 55.94950 -3.36533 107 ft 4 kts 175°
2026-05-03 21:20 55.94972 -3.36525 106 ft 3 kts 236°
2026-05-03 21:20 55.94974 -3.36522 106 ft 0 kts 239°
2026-05-03 21:22 55.94973 -3.36523 107 ft 2 kts 239°
2026-05-03 21:23 55.94949 -3.36595 106 ft 10 kts 238°
2026-05-03 21:23 55.94904 -3.36726 106 ft 9 kts 238°
2026-05-03 21:23 55.94906 -3.36815 107 ft 8 kts 326°
2026-05-03 21:23 55.94924 -3.36904 105 ft 10 kts 239°
2026-05-03 21:24 55.94868 -3.37068 107 ft 21 kts 239°
2026-05-03 21:24 55.94778 -3.37335 107 ft 29 kts 239°
2026-05-03 21:24 55.94663 -3.37680 107 ft 36 kts 239°
2026-05-03 21:24 55.94547 -3.38014 107 ft 25 kts 238°
2026-05-03 21:25 55.94468 -3.38250 107 ft 24 kts 239°
2026-05-03 21:25 55.94397 -3.38457 107 ft 20 kts 238°
2026-05-03 21:25 55.94339 -3.38628 107 ft 14 kts 239°
2026-05-03 21:25 55.94286 -3.38785 107 ft 14 kts 238°
2026-05-03 21:26 55.94296 -3.38877 107 ft 6 kts 325°
2026-05-03 21:26 55.94313 -3.38895 107 ft 4 kts 330°
2026-05-03 21:26 55.94335 -3.38917 107 ft 8 kts 330°
2026-05-03 21:26 55.94395 -3.38978 108 ft 10 kts 331°
2026-05-03 21:27 55.94418 -3.38970 108 ft 3 kts 60°
2026-05-03 21:27 55.94422 -3.38957 109 ft 1 kts 60°
2026-05-03 21:27 55.94423 -3.38954 109 ft 0 kts 60°
2026-05-03 21:27 55.94426 -3.38947 109 ft 2 kts 60°
2026-05-03 21:28 55.94485 -3.38765 108 ft 48 kts 59°
2026-05-03 21:28 55.94783 -3.37888 110 ft 113 kts 59°
2026-05-03 21:28 55.95280 -3.36425 158 ft 155 kts 58°
2026-05-03 21:28 55.95823 -3.34778 746 ft 154 kts 60°
2026-05-03 21:29 55.96535 -3.33305 1320 ft 159 kts 39°
2026-05-03 21:29 55.97431 -3.31962 1656 ft 180 kts 40°
2026-05-03 21:29 55.98081 -3.30951 1883 ft 193 kts 41°
2026-05-03 21:29 55.99515 -3.28724 2409 ft 221 kts 36°
2026-05-03 21:30 56.00448 -3.27820 2735 ft 234 kts 17°
2026-05-03 21:30 56.02622 -3.28388 3564 ft 255 kts 325°
2026-05-03 21:30 56.03712 -3.30878 4476 ft 262 kts 290°
2026-05-03 21:30 56.03841 -3.34139 5413 ft 269 kts 262°
2026-05-03 21:31 56.03599 -3.36108 5999 ft 271 kts 255°
2026-05-03 21:31 56.02998 -3.39319 6937 ft 274 kts 251°
2026-05-03 21:31 56.02331 -3.42520 7853 ft 276 kts 251°
2026-05-03 21:31 56.01689 -3.45768 8772 ft 278 kts 252°
2026-05-03 21:32 56.01099 -3.49071 9692 ft 280 kts 254°
2026-05-03 21:32 56.00548 -3.52458 10326 ft 292 kts 255°
2026-05-03 21:32 55.99997 -3.56101 10573 ft 315 kts 256°
2026-05-03 21:32 55.99436 -3.59986 10985 ft 329 kts 257°
2026-05-03 21:33 55.98870 -3.63988 11646 ft 334 kts 257°
2026-05-03 21:33 55.98297 -3.68035 12374 ft 338 kts 257°
2026-05-03 21:33 55.97478 -3.71990 13079 ft 344 kts 241°
2026-05-03 21:33 55.95942 -3.75297 13784 ft 352 kts 220°
2026-05-03 21:34 55.93795 -3.77445 14418 ft 359 kts 199°
2026-05-03 21:34 55.91316 -3.78114 15060 ft 364 kts 183°
2026-05-03 21:34 55.88806 -3.78248 15707 ft 367 kts 182°
2026-05-03 21:34 55.86241 -3.78361 16335 ft 370 kts 182°
2026-05-03 21:35 55.83656 -3.78474 16965 ft 373 kts 183°
2026-05-03 21:35 55.81049 -3.78589 17607 ft 376 kts 183°
2026-05-03 21:35 55.78422 -3.78706 18254 ft 380 kts 183°
2026-05-03 21:35 55.75767 -3.78823 18836 ft 383 kts 183°
2026-05-03 21:36 55.73090 -3.78940 19404 ft 387 kts 182°
2026-05-03 21:36 55.70384 -3.79064 19978 ft 391 kts 182°
2026-05-03 21:36 55.67653 -3.79197 20538 ft 395 kts 182°
2026-05-03 21:36 55.64895 -3.79334 21091 ft 399 kts 182°
2026-05-03 21:37 55.62108 -3.79475 21636 ft 402 kts 182°
2026-05-03 21:37 55.59296 -3.79615 22175 ft 406 kts 182°
2026-05-03 21:37 55.56458 -3.79751 22705 ft 410 kts 182°
2026-05-03 21:37 55.53598 -3.79882 23235 ft 413 kts 182°
2026-05-03 21:38 55.50711 -3.80015 23719 ft 417 kts 182°
2026-05-03 21:38 55.47800 -3.80152 24134 ft 420 kts 182°
2026-05-03 21:38 55.44865 -3.80295 24534 ft 424 kts 182°
2026-05-03 21:38 55.41902 -3.80441 24926 ft 427 kts 182°
2026-05-03 21:39 55.38919 -3.80584 25310 ft 431 kts 181°
2026-05-03 21:39 55.35909 -3.80725 25687 ft 435 kts 181°
2026-05-03 21:39 55.32874 -3.80862 26059 ft 438 kts 181°
2026-05-03 21:39 55.29813 -3.80997 26421 ft 442 kts 181°
2026-05-03 21:40 55.26730 -3.81131 26775 ft 445 kts 180°
2026-05-03 21:40 55.23634 -3.80800 27127 ft 447 kts 170°
2026-05-03 21:40 55.20603 -3.79559 27484 ft 449 kts 160°
2026-05-03 21:40 55.17727 -3.77443 27849 ft 450 kts 151°
2026-05-03 21:41 55.14913 -3.75001 28206 ft 453 kts 151°
2026-05-03 21:41 55.12080 -3.72554 28573 ft 456 kts 151°
2026-05-03 21:41 55.09225 -3.70104 28924 ft 459 kts 151°
2026-05-03 21:41 55.06351 -3.67650 29272 ft 461 kts 151°
2026-05-03 21:42 55.03459 -3.65183 29647 ft 464 kts 151°
2026-05-03 21:42 55.00553 -3.62707 30006 ft 466 kts 151°
2026-05-03 21:42 54.97631 -3.60218 30313 ft 469 kts 151°
2026-05-03 21:42 54.94705 -3.57728 30730 ft 467 kts 152°
2026-05-03 21:43 54.91786 -3.55248 31211 ft 465 kts 152°
2026-05-03 21:43 54.88878 -3.52780 31693 ft 463 kts 152°
2026-05-03 21:43 54.86029 -3.50366 32164 ft 461 kts 153°
2026-05-03 21:43 54.83152 -3.47934 32647 ft 459 kts 153°
2026-05-03 21:44 54.80284 -3.45514 32954 ft 458 kts 153°
2026-05-03 21:44 54.77427 -3.43103 33010 ft 454 kts 153°
2026-05-03 21:44 54.71763 -3.38342 33012 ft 451 kts 154°
2026-05-03 21:45 54.66113 -3.33607 33012 ft 451 kts 154°
2026-05-03 21:45 54.60467 -3.28887 33008 ft 451 kts 154°
2026-05-03 21:46 54.54823 -3.24189 33009 ft 450 kts 154°
2026-05-03 21:46 54.49180 -3.19513 33009 ft 450 kts 155°
2026-05-03 21:47 54.43547 -3.14838 33016 ft 449 kts 155°
2026-05-03 21:47 54.37918 -3.10191 33020 ft 448 kts 155°
2026-05-03 21:48 54.32296 -3.05568 33021 ft 447 kts 155°
2026-05-03 21:48 54.26690 -3.00965 33024 ft 446 kts 155°
2026-05-03 21:49 54.21091 -2.96392 33020 ft 446 kts 155°
2026-05-03 21:49 54.15494 -2.91867 33017 ft 445 kts 156°
2026-05-03 21:50 54.09823 -2.87663 33014 ft 444 kts 159°
2026-05-03 21:50 54.04118 -2.83635 33015 ft 443 kts 159°
2026-05-03 21:51 53.98371 -2.79887 33018 ft 441 kts 164°
2026-05-03 21:51 53.92502 -2.76771 33013 ft 441 kts 164°
2026-05-03 21:52 53.86649 -2.73665 33012 ft 441 kts 164°
2026-05-03 21:52 53.80803 -2.70575 33014 ft 440 kts 164°
2026-05-03 21:53 53.74960 -2.67503 33008 ft 439 kts 164°
2026-05-03 21:53 53.69132 -2.64456 33005 ft 438 kts 164°
2026-05-03 21:54 53.63308 -2.61416 33004 ft 438 kts 164°
2026-05-03 21:54 53.57498 -2.58378 33002 ft 437 kts 164°
2026-05-03 21:55 53.51732 -2.55385 33001 ft 436 kts 164°
2026-05-03 21:55 53.45942 -2.52386 32996 ft 435 kts 164°
2026-05-03 21:56 53.40169 -2.49399 32995 ft 434 kts 164°
2026-05-03 21:56 53.34401 -2.46425 32990 ft 433 kts 164°
2026-05-03 21:57 53.28635 -2.43457 32969 ft 434 kts 165°
2026-05-03 21:57 53.22840 -2.40489 32969 ft 437 kts 165°
2026-05-03 21:58 53.17014 -2.37530 32970 ft 438 kts 165°
2026-05-03 21:58 53.11171 -2.34565 32962 ft 439 kts 165°
2026-05-03 21:59 53.05316 -2.31584 32965 ft 440 kts 164°
2026-05-03 21:59 53.02471 -2.29716 32750 ft 439 kts 155°
2026-05-03 21:59 52.99824 -2.27175 31969 ft 441 kts 149°
2026-05-03 22:00 52.97227 -2.24421 31012 ft 445 kts 149°
2026-05-03 22:00 52.94625 -2.21660 30600 ft 444 kts 149°
2026-05-03 22:00 52.92010 -2.18895 30357 ft 447 kts 149°
2026-05-03 22:00 52.89381 -2.16128 30108 ft 448 kts 150°
2026-05-03 22:01 52.86742 -2.13365 29833 ft 448 kts 150°
2026-05-03 22:01 52.84103 -2.10612 29450 ft 449 kts 150°
2026-05-03 22:01 52.81463 -2.07862 29235 ft 449 kts 150°
2026-05-03 22:01 52.78816 -2.05113 28959 ft 450 kts 150°
2026-05-03 22:02 52.76152 -2.02352 28673 ft 454 kts 150°
2026-05-03 22:02 52.73467 -1.99567 28395 ft 456 kts 150°
2026-05-03 22:02 52.70776 -1.96781 28123 ft 457 kts 150°
2026-05-03 22:02 52.68075 -1.93994 27846 ft 458 kts 150°
2026-05-03 22:03 52.65373 -1.91211 27580 ft 459 kts 150°
2026-05-03 22:03 52.62660 -1.88416 27313 ft 460 kts 150°
2026-05-03 22:03 52.59949 -1.85620 27048 ft 460 kts 150°
2026-05-03 22:03 52.57238 -1.82828 26794 ft 460 kts 150°
2026-05-03 22:04 52.54528 -1.80044 26531 ft 459 kts 150°
2026-05-03 22:04 52.51819 -1.77268 26271 ft 457 kts 150°
2026-05-03 22:04 52.49127 -1.74512 25756 ft 455 kts 150°
2026-05-03 22:04 52.46457 -1.71782 25182 ft 451 kts 150°
2026-05-03 22:05 52.43803 -1.69070 24615 ft 448 kts 150°
2026-05-03 22:05 52.41165 -1.66380 24060 ft 445 kts 150°
2026-05-03 22:05 52.38548 -1.63714 23538 ft 442 kts 150°
2026-05-03 22:05 52.35944 -1.61067 22958 ft 439 kts 150°
2026-05-03 22:06 52.33362 -1.58446 22449 ft 436 kts 150°
2026-05-03 22:06 52.30794 -1.55845 21904 ft 432 kts 150°
2026-05-03 22:06 52.28249 -1.53275 21367 ft 429 kts 150°
2026-05-03 22:06 52.25721 -1.50730 20839 ft 425 kts 151°
2026-05-03 22:07 52.23193 -1.48264 20291 ft 422 kts 151°
2026-05-03 22:07 52.20806 -1.45516 19985 ft 421 kts 141°
2026-05-03 22:07 52.18608 -1.42366 19935 ft 421 kts 141°
2026-05-03 22:07 52.16397 -1.39234 19945 ft 421 kts 141°
2026-05-03 22:08 52.14204 -1.36164 19947 ft 421 kts 142°
2026-05-03 22:08 52.12004 -1.33108 19779 ft 406 kts 142°
2026-05-03 22:08 52.09902 -1.30191 19266 ft 387 kts 142°
2026-05-03 22:08 52.07900 -1.27411 18756 ft 370 kts 142°
2026-05-03 22:09 52.05991 -1.24757 18251 ft 354 kts 142°
2026-05-03 22:09 52.04152 -1.22201 17670 ft 344 kts 142°
2026-05-03 22:09 52.02338 -1.19688 17084 ft 342 kts 142°
2026-05-03 22:10 51.98750 -1.14746 15931 ft 334 kts 142°
2026-05-03 22:10 51.96984 -1.12313 15372 ft 332 kts 142°
2026-05-03 22:10 51.95233 -1.09899 14827 ft 329 kts 142°
2026-05-03 22:10 51.93492 -1.07500 14200 ft 330 kts 142°
2026-05-03 22:11 51.91731 -1.05081 13605 ft 333 kts 142°
2026-05-03 22:11 51.89992 -1.02696 13064 ft 322 kts 142°
2026-05-03 22:11 51.88292 -1.00364 12535 ft 319 kts 142°
2026-05-03 22:11 51.86608 -0.98053 12020 ft 316 kts 142°
2026-05-03 22:12 51.85114 -0.95453 11720 ft 318 kts 126°
2026-05-03 22:12 51.84068 -0.92282 11466 ft 320 kts 119°
2026-05-03 22:12 51.83417 -0.90149 11221 ft 319 kts 118°
2026-05-03 22:12 51.82468 -0.87027 10852 ft 316 kts 118°
2026-05-03 22:13 51.81487 -0.83806 10463 ft 314 kts 118°
2026-05-03 22:13 51.80537 -0.80691 10109 ft 309 kts 118°
2026-05-03 22:13 51.79611 -0.77650 9730 ft 295 kts 118°
2026-05-03 22:13 51.78725 -0.74743 9329 ft 282 kts 118°
2026-05-03 22:14 51.77871 -0.71960 8963 ft 271 kts 119°
2026-05-03 22:14 51.77056 -0.69316 8922 ft 256 kts 119°
2026-05-03 22:14 51.76270 -0.66773 8920 ft 252 kts 119°
2026-05-03 22:14 51.75486 -0.64250 8922 ft 251 kts 119°
2026-05-03 22:15 51.74706 -0.61734 8922 ft 251 kts 119°
2026-05-03 22:15 51.73923 -0.59215 8919 ft 251 kts 120°
2026-05-03 22:15 51.73108 -0.56726 8939 ft 251 kts 121°
2026-05-03 22:15 51.72286 -0.54246 8944 ft 251 kts 121°
2026-05-03 22:16 51.71465 -0.51765 8939 ft 251 kts 121°
2026-05-03 22:16 51.70642 -0.49285 8945 ft 251 kts 121°
2026-05-03 22:16 51.69820 -0.46813 8944 ft 250 kts 121°
2026-05-03 22:16 51.68996 -0.44334 8945 ft 251 kts 121°
2026-05-03 22:17 51.68173 -0.41860 8946 ft 251 kts 121°
2026-05-03 22:17 51.67349 -0.39381 8948 ft 251 kts 121°
2026-05-03 22:17 51.66526 -0.36904 8947 ft 251 kts 121°
2026-05-03 22:17 51.65704 -0.34428 8947 ft 251 kts 121°
2026-05-03 22:18 51.64882 -0.31956 8712 ft 249 kts 121°
2026-05-03 22:18 51.64065 -0.29504 8372 ft 250 kts 121°
2026-05-03 22:18 51.63234 -0.27023 7858 ft 252 kts 121°
2026-05-03 22:18 51.62401 -0.24544 7363 ft 250 kts 121°
2026-05-03 22:19 51.61578 -0.22103 6894 ft 247 kts 121°
2026-05-03 22:19 51.60760 -0.19687 6425 ft 245 kts 121°
2026-05-03 22:19 51.59949 -0.17293 5913 ft 243 kts 121°
2026-05-03 22:19 51.59130 -0.14936 5392 ft 239 kts 126°
2026-05-03 22:20 51.57933 -0.13199 4885 ft 231 kts 158°
2026-05-03 22:20 51.56393 -0.12680 4375 ft 226 kts 178°
2026-05-03 22:20 51.54835 -0.12630 4042 ft 219 kts 181°
2026-05-03 22:20 51.53362 -0.12638 4003 ft 208 kts 181°
2026-05-03 22:21 51.51912 -0.12658 4007 ft 207 kts 183°
2026-05-03 22:21 51.50557 -0.13284 4002 ft 205 kts 216°
2026-05-03 22:21 51.49631 -0.14993 3896 ft 203 kts 237°
2026-05-03 22:21 51.48942 -0.16940 3686 ft 195 kts 240°
2026-05-03 22:22 51.48301 -0.18867 3210 ft 197 kts 241°
2026-05-03 22:22 51.47829 -0.20880 2876 ft 190 kts 262°
2026-05-03 22:22 51.47800 -0.22972 2623 ft 184 kts 268°
2026-05-03 22:22 51.47800 -0.24955 2376 ft 169 kts 269°
2026-05-03 22:23 51.47799 -0.26793 2160 ft 163 kts 269°
2026-05-03 22:23 51.47796 -0.28607 1944 ft 162 kts 268°
2026-05-03 22:23 51.47793 -0.30380 1745 ft 161 kts 268°
2026-05-03 22:23 51.47791 -0.32135 1537 ft 148 kts 268°
2026-05-03 22:24 51.47788 -0.33731 1327 ft 139 kts 268°
2026-05-03 22:24 51.47785 -0.35265 1135 ft 136 kts 268°
2026-05-03 22:24 51.47783 -0.36779 938 ft 135 kts 268°
2026-05-03 22:24 51.47790 -0.38303 735 ft 136 kts 265°
2026-05-03 22:25 51.47804 -0.39852 524 ft 141 kts 253°
2026-05-03 22:25 51.47764 -0.41572 755 ft 164 kts 253°
2026-05-03 22:25 51.47752 -0.43501 1204 ft 188 kts 269°
2026-05-03 22:25 51.47778 -0.45786 1830 ft 213 kts 269°
2026-05-03 22:26 51.47796 -0.48138 2654 ft 211 kts 269°
2026-05-03 22:26 51.47810 -0.50478 2913 ft 209 kts 269°
2026-05-03 22:26 51.47825 -0.52805 2998 ft 208 kts 269°
2026-05-03 22:26 51.47906 -0.55114 3001 ft 208 kts 283°
2026-05-03 22:27 51.48638 -0.57095 3011 ft 211 kts 318°
2026-05-03 22:27 51.49968 -0.58038 3172 ft 220 kts 355°
2026-05-03 22:27 51.51519 -0.57564 3427 ft 235 kts 29°
2026-05-03 22:27 51.52734 -0.55863 3676 ft 239 kts 52°
2026-05-03 22:28 51.53737 -0.53721 3902 ft 241 kts 56°
2026-05-03 22:28 51.54711 -0.51520 3990 ft 242 kts 56°
2026-05-03 22:28 51.55677 -0.49314 4005 ft 241 kts 56°
2026-05-03 22:28 51.56592 -0.47061 4004 ft 240 kts 68°
2026-05-03 22:29 51.56933 -0.44469 4009 ft 237 kts 88°
2026-05-03 22:29 51.56997 -0.41820 4008 ft 237 kts 91°
2026-05-03 22:29 51.57023 -0.39167 4004 ft 238 kts 91°
2026-05-03 22:29 51.57050 -0.36510 4006 ft 237 kts 91°
2026-05-03 22:30 51.57077 -0.33859 4007 ft 238 kts 91°
2026-05-03 22:30 51.57102 -0.31202 4006 ft 237 kts 91°
2026-05-03 22:30 51.57131 -0.28546 4009 ft 238 kts 91°
2026-05-03 22:30 51.57159 -0.25886 4007 ft 238 kts 91°
2026-05-03 22:31 51.57186 -0.23227 4007 ft 238 kts 91°
2026-05-03 22:31 51.57203 -0.20556 4003 ft 238 kts 96°
2026-05-03 22:31 51.56727 -0.18106 3994 ft 223 kts 128°
2026-05-03 22:31 51.55663 -0.16521 4005 ft 200 kts 148°
2026-05-03 22:32 51.54541 -0.15348 4036 ft 189 kts 150°
2026-05-03 22:32 51.53378 -0.14456 4001 ft 183 kts 172°
2026-05-03 22:32 51.52112 -0.14285 4004 ft 182 kts 180°
2026-05-03 22:32 51.50846 -0.14244 4005 ft 182 kts 181°
2026-05-03 22:33 51.49586 -0.14317 3913 ft 179 kts 199°
2026-05-03 22:33 51.48463 -0.15116 3608 ft 178 kts 217°
2026-05-03 22:33 51.47826 -0.16781 3354 ft 181 kts 259°
2026-05-03 22:33 51.47813 -0.18821 3128 ft 184 kts 267°
2026-05-03 22:34 51.47808 -0.20869 2879 ft 183 kts 267°
2026-05-03 22:34 51.47804 -0.22906 2635 ft 182 kts 267°
2026-05-03 22:34 51.47801 -0.24932 2390 ft 178 kts 267°
2026-05-03 22:34 51.47799 -0.26861 2145 ft 166 kts 267°
2026-05-03 22:35 51.47797 -0.28648 1933 ft 153 kts 267°
2026-05-03 22:35 51.47795 -0.30303 1748 ft 145 kts 266°
2026-05-03 22:35 51.47792 -0.31908 1546 ft 143 kts 266°
2026-05-03 22:35 51.47788 -0.33503 1353 ft 143 kts 267°
2026-05-03 22:36 51.47785 -0.35096 1151 ft 143 kts 267°
2026-05-03 22:36 51.47782 -0.36696 957 ft 144 kts 268°
2026-05-03 22:36 51.47778 -0.38290 759 ft 142 kts 268°
2026-05-03 22:36 51.47787 -0.39871 568 ft 142 kts 267°
2026-05-03 22:37 51.47788 -0.41446 361 ft 142 kts 254°
2026-05-03 22:37 51.47773 -0.43042 177 ft 145 kts 256°
2026-05-03 22:37 51.47762 -0.44552 90 ft 115 kts 269°
2026-05-03 22:37 51.47760 -0.45555 86 ft 65 kts 270°
2026-05-03 22:38 51.47758 -0.46026 88 ft 26 kts 271°
2026-05-03 22:38 51.47733 -0.46164 89 ft 10 kts 199°
2026-05-03 22:38 51.47664 -0.46103 90 ft 13 kts 145°
2026-05-03 22:38 51.47618 -0.46053 89 ft 5 kts 152°
2026-05-03 22:39 51.47596 -0.46092 88 ft 6 kts 266°
2026-05-03 22:39 51.47594 -0.46182 88 ft 10 kts 269°
2026-05-03 22:39 51.47594 -0.46316 87 ft 15 kts 270°
2026-05-03 22:39 51.47593 -0.46502 87 ft 18 kts 269°
2026-05-03 22:40 51.47592 -0.46719 87 ft 18 kts 269°
2026-05-03 22:40 51.47582 -0.46938 89 ft 21 kts 270°
2026-05-03 22:40 51.47582 -0.47191 89 ft 24 kts 269°
2026-05-03 22:40 51.47581 -0.47442 90 ft 22 kts 270°
2026-05-03 22:41 51.47580 -0.47700 89 ft 24 kts 270°
2026-05-03 22:41 51.47578 -0.47965 89 ft 15 kts 269°
2026-05-03 22:41 51.47578 -0.48142 89 ft 17 kts 270°
2026-05-03 22:41 51.47578 -0.48350 88 ft 18 kts 270°
2026-05-03 22:42 51.47572 -0.48458 88 ft 8 kts 243°
2026-05-03 22:42 51.47509 -0.48478 87 ft 11 kts 178°
2026-05-03 22:42 51.47429 -0.48477 87 ft 10 kts 179°
2026-05-03 22:42 51.47406 -0.48481 87 ft 2 kts 199°
2026-05-03 22:43 51.47397 -0.48511 89 ft 4 kts 270°
2026-05-03 22:43 51.47399 -0.48557 87 ft 1 kts 270°
2026-05-03 22:43 51.47399 -0.48581 88 ft 2 kts 270°
2026-05-03 22:43 51.47399 -0.48589 87 ft 0 kts 270°